Retour au catalogue

DELTA 1 DEB

ActifLEO
NORAD 10207·DEBRIS·🇺🇸 United States

Lancé Jul 14, 1977 depuis Cape Canaveral Space Force Station

Loading…

Prochains Passages (prochaines 24 heures)

TLE

FraisSource: Space-Track

Époque: Sep 13, 2026, 23:50 UTC

1 10207U 77065AL  26256.99372838  .00002589  00000-0  47778-2 0  9994
2 10207  29.0802 202.7824 0668978  73.6313 293.6684 12.74102740265521

Suivez DELTA 1 DEB en temps réel avec AllMySat

Download on the App Store